, CO

(GMT )
Cottonwood Pass

Weather History for K7BM - September, 2013

Change the Weather History Date:

Saturday, September 28, 2013

  Actual Average Record
Temperature  
Mean Temperature 44 °F -  
Max Temperature 55 °F - - ()
Min Temperature 32 °F - - ()
Degree Days  
Heating Degree Days 22    
Moisture  
Dew Point 14 °F    
Average Humidity 33    
Maximum Humidity 64    
Minimum Humidity 14    
Precipitation  
Precipitation 0.00 in - - ()
Sea Level Pressure  
Sea Level Pressure 30.30 in    
Wind  
Wind Speed 11 mph (West)    
Max Wind Speed 30 mph    
Max Gust Speed 46 mph    
Visibility 10 miles    
Events      
T = Trace of Precipitation, MM = Missing Value Source: NWS Daily Summary

Daily Weather History Graph

Daily Weather History Graph

Search for Another Location

Airport or City:

Trip Planner

Search our weather history database for the weather conditions in past years. The results will help you decide how hot, cold, wet, or windy it might be!

Date:

Astronomy

Sep. 28, 2013 Rise Set
Actual Time 6:58 AM MDT 6:51 PM MDT
Civil Twilight 6:31 AM MDT 7:18 PM MDT
Nautical Twilight 6:00 AM MDT 7:49 PM MDT
Astronomical Twilight 5:29 AM MDT 8:20 PM MDT
Moon 12:51 AM MDT (9/28) 3:09 PM MDT (9/28)
Length of Visible Light 12h 46m
Length of Day
11h 53m
Waning Crescent, 35% of the Moon is Illuminated
Sep 28
Waning Crescent
Oct 4
New
Oct 11
First Quarter
Oct 18
Full
Oct 26
Last Quarter

Hourly Weather History & Observations

Time (MDT) Temp. Windchill Dew Point Humidity Pressure Visibility Wind Dir Wind Speed Gust Speed Precip Events Conditions
12:14 AM 32.0 °F 24.2 °F 21.2 °F 64% 30.16 in 10.0 mi NNW 9.2 mph 17.3 mph N/A   Overcast
12:34 AM 32.0 °F 24.8 °F 19.4 °F 60% 30.15 in 10.0 mi North 8.1 mph 23.0 mph N/A   Overcast
12:55 AM 32.0 °F 24.2 °F 19.4 °F 60% 30.15 in 10.0 mi NW 9.2 mph - N/A   Overcast
1:15 AM 32.0 °F 23.6 °F 19.4 °F 60% 30.15 in 10.0 mi NNW 10.4 mph 28.8 mph N/A   Mostly Cloudy
1:35 AM 32.0 °F 22.5 °F 17.6 °F 55% 30.16 in 10.0 mi NW 12.7 mph 25.3 mph N/A   Mostly Cloudy
1:55 AM 32.0 °F 22.1 °F 17.6 °F 55% 30.17 in 10.0 mi WNW 13.8 mph 32.2 mph N/A   Overcast
2:15 AM 32.0 °F 21.6 °F 17.6 °F 55% 30.18 in 10.0 mi West 15.0 mph 32.2 mph N/A   Overcast
2:35 AM 32.0 °F 20.5 °F 17.6 °F 55% 30.18 in 10.0 mi West 18.4 mph 31.1 mph N/A   Scattered Clouds
2:55 AM 32.0 °F 19.8 °F 15.8 °F 51% 30.18 in 10.0 mi West 20.7 mph 39.1 mph N/A   Clear
3:15 AM 32.0 °F 21.6 °F 14.0 °F 48% 30.17 in 10.0 mi WNW 15.0 mph 31.1 mph N/A   Clear
3:35 AM 32.0 °F 19.8 °F 12.2 °F 44% 30.18 in 10.0 mi West 20.7 mph 34.5 mph N/A   Clear
3:55 AM 32.0 °F 19.2 °F 10.4 °F 41% 30.18 in 10.0 mi WNW 23.0 mph 40.3 mph N/A   Clear
4:15 AM 32.0 °F 20.1 °F 8.6 °F 38% 30.19 in 10.0 mi WNW 19.6 mph 31.1 mph N/A   Clear
4:35 AM 33.8 °F 22.8 °F 5.0 °F 30% 30.19 in 10.0 mi WNW 18.4 mph 34.5 mph N/A   Clear
4:55 AM 33.8 °F 20.1 °F 3.2 °F 28% 30.19 in 10.0 mi West 29.9 mph 46.0 mph N/A   Clear
5:15 AM 33.8 °F 21.0 °F 1.4 °F 25% 30.20 in 10.0 mi West 25.3 mph 39.1 mph N/A   Clear
5:35 AM 33.8 °F 23.5 °F -0.4 °F 23% 30.21 in 10.0 mi West 16.1 mph 31.1 mph N/A   Clear
5:55 AM 33.8 °F - 3.2 °F 28% 30.22 in 10.0 mi Calm Calm - N/A   Clear
6:15 AM 32.0 °F 28.7 °F 8.6 °F 38% 30.23 in 10.0 mi WNW 3.5 mph - N/A   Clear
6:35 AM 32.0 °F 25.6 °F 8.6 °F 38% 30.24 in 10.0 mi NNW 6.9 mph - N/A   Clear
6:54 AM 32.0 °F 27.5 °F 8.6 °F 38% 30.25 in 10.0 mi NNW 4.6 mph - N/A   Clear
7:14 AM 32.0 °F 24.8 °F 8.6 °F 38% 30.26 in 10.0 mi NW 8.1 mph - N/A   Clear
7:35 AM 32.0 °F 26.4 °F 6.8 °F 35% 30.26 in 10.0 mi NNW 5.8 mph - N/A   Clear
7:55 AM 32.0 °F 27.5 °F 5.0 °F 32% 30.27 in 10.0 mi NNW 4.6 mph - N/A   Clear
8:15 AM 33.8 °F - 3.2 °F 28% 30.28 in 10.0 mi Calm Calm - N/A   Clear
8:35 AM 35.6 °F - 12.2 °F 38% 30.29 in 10.0 mi Calm Calm - N/A   Clear
8:55 AM 35.6 °F - 12.2 °F 38% 30.29 in 10.0 mi Calm Calm - N/A   Clear
9:14 AM 37.4 °F 32.8 °F 12.2 °F 36% 30.30 in 10.0 mi SE 5.8 mph - N/A   Clear
9:35 AM 39.2 °F 33.0 °F 14.0 °F 36% 30.31 in 10.0 mi SSE 9.2 mph - N/A   Clear
9:55 AM 39.2 °F 33.0 °F 14.0 °F 36% 30.31 in 10.0 mi SE 9.2 mph - N/A   Clear
10:14 AM 41.0 °F 34.7 °F 14.0 °F 33% 30.32 in 10.0 mi SSE 10.4 mph - N/A   Clear
10:35 AM 42.8 °F 39.3 °F 14.0 °F 31% 30.32 in 10.0 mi ESE 5.8 mph - N/A   Clear
10:55 AM 44.6 °F 42.2 °F 12.2 °F 27% 30.32 in 10.0 mi ESE 4.6 mph - N/A   Clear
11:14 AM 46.4 °F 41.5 °F 12.2 °F 25% 30.31 in 10.0 mi SE 10.4 mph - N/A   Clear
11:35 AM 44.6 °F 39.2 °F 15.8 °F 31% 30.32 in 10.0 mi SE 10.4 mph 17.3 mph N/A   Clear
11:55 AM 46.4 °F 41.5 °F 17.6 °F 32% 30.33 in 10.0 mi SE 10.4 mph - N/A   Clear
12:15 PM 48.2 °F - 19.4 °F 32% 30.33 in 10.0 mi SE 9.2 mph 16.1 mph N/A   Clear
12:35 PM 50.0 °F - 17.6 °F 28% 30.33 in 10.0 mi ESE 8.1 mph - N/A   Clear
12:55 PM 48.2 °F - 19.4 °F 32% 30.33 in 10.0 mi SE 6.9 mph - N/A   Clear
1:15 PM 51.8 °F - 17.6 °F 26% 30.34 in 10.0 mi ESE 4.6 mph - N/A   Clear
1:35 PM 51.8 °F - 17.6 °F 26% 30.34 in 10.0 mi Calm Calm - N/A   Clear
1:55 PM 53.6 °F - 12.2 °F 19% 30.34 in 10.0 mi Calm Calm - N/A   Clear
2:15 PM 55.4 °F - 14.0 °F 20% 30.33 in 10.0 mi South 5.8 mph - N/A   Clear
2:35 PM 55.4 °F - 17.6 °F 23% 30.34 in 10.0 mi SSW 3.5 mph - N/A   Clear
2:55 PM 55.4 °F - 14.0 °F 20% 30.34 in 10.0 mi WSW 5.8 mph - N/A   Clear
3:15 PM 55.4 °F - 14.0 °F 20% 30.33 in 10.0 mi NW 4.6 mph - N/A   Clear
3:35 PM 55.4 °F - 12.2 °F 18% 30.34 in 10.0 mi West 5.8 mph - N/A   Clear
3:54 PM 55.4 °F - 10.4 °F 17% 30.34 in 10.0 mi WSW 6.9 mph 17.3 mph N/A   Clear
4:15 PM 55.4 °F - 6.8 °F 14% 30.34 in 10.0 mi SW 8.1 mph 17.3 mph N/A   Clear
4:35 PM 53.6 °F - 6.8 °F 15% 30.35 in 10.0 mi WSW 10.4 mph 17.3 mph N/A   Clear
4:55 PM 53.6 °F - 8.6 °F 16% 30.35 in 10.0 mi West 11.5 mph 23.0 mph N/A   Clear
5:15 PM 53.6 °F - 10.4 °F 18% 30.35 in 10.0 mi West 15.0 mph 21.9 mph N/A   Clear
5:35 PM 53.6 °F - 12.2 °F 19% 30.36 in 10.0 mi West 12.7 mph 23.0 mph N/A   Clear
5:55 PM 51.8 °F - 14.0 °F 22% 30.36 in 10.0 mi West 10.4 mph 17.3 mph N/A   Clear
6:15 PM 50.0 °F - 14.0 °F 24% 30.36 in 10.0 mi West 11.5 mph 18.4 mph N/A   Clear
6:35 PM 50.0 °F - 14.0 °F 24% 30.36 in 10.0 mi West 10.4 mph 23.0 mph N/A   Clear
6:55 PM 50.0 °F - 15.8 °F 26% 30.37 in 10.0 mi West 12.7 mph 20.7 mph N/A   Clear
7:15 PM 48.2 °F - 17.6 °F 30% 30.37 in 10.0 mi WNW 12.7 mph 20.7 mph N/A   Clear
7:35 PM 48.2 °F - 19.4 °F 32% 30.37 in 10.0 mi West 11.5 mph 20.7 mph N/A   Clear
7:55 PM 46.4 °F 40.7 °F 21.2 °F 37% 30.37 in 10.0 mi WNW 12.7 mph 23.0 mph N/A   Clear
8:15 PM 46.4 °F 41.1 °F 23.0 °F 40% 30.37 in 10.0 mi West 11.5 mph 18.4 mph N/A   Clear
8:35 PM 46.4 °F 41.9 °F 23.0 °F 40% 30.38 in 10.0 mi WNW 9.2 mph - N/A   Clear
8:54 PM 44.6 °F 39.7 °F 23.0 °F 43% 30.38 in 10.0 mi West 9.2 mph - N/A   Clear
9:14 PM 44.6 °F 41.4 °F 23.0 °F 43% 30.38 in 10.0 mi NW 5.8 mph - N/A   Clear
9:35 PM 44.6 °F 40.2 °F 21.2 °F 39% 30.38 in 10.0 mi West 8.1 mph - N/A   Clear
9:55 PM 44.6 °F 38.4 °F 19.4 °F 37% 30.38 in 10.0 mi WSW 12.7 mph 18.4 mph N/A   Clear
10:15 PM 44.6 °F 39.2 °F 17.6 °F 34% 30.38 in 10.0 mi WSW 10.4 mph 17.3 mph N/A   Clear
10:35 PM 44.6 °F 39.7 °F 15.8 °F 31% 30.38 in 10.0 mi South 9.2 mph 18.4 mph N/A   Clear
10:55 PM 44.6 °F 38.8 °F 14.0 °F 29% 30.38 in 10.0 mi WSW 11.5 mph 19.6 mph N/A   Clear
11:15 PM 44.6 °F 38.8 °F 14.0 °F 29% 30.37 in 10.0 mi West 11.5 mph 17.3 mph N/A   Clear
11:35 PM 44.6 °F 38.8 °F 14.0 °F 29% 30.37 in 10.0 mi WSW 11.5 mph 19.6 mph N/A   Clear
11:55 PM 44.6 °F 39.7 °F 14.0 °F 29% 30.38 in 10.0 mi SW 9.2 mph 18.4 mph N/A   Clear